Weather History for PANT - May, 2014

Change the Weather History Date:

Friday, May 16, 2014

  Actual Average Record
Temperature  
Mean Temperature 62 °F 50 °F  
Max Temperature 72 °F 56 °F 76 °F (1969)
Min Temperature 51 °F 44 °F 35 °F (1989)
Degree Days  
Heating Degree Days 3 15  
Month to date heating degree days 211 263  
Since 1 July heating degree days 6206 6208  
Cooling Degree Days 0    
Month to date cooling degree days 0  
Year to date cooling degree days 0  
Growing Degree Days 12 (Base 50)    
Moisture  
Dew Point 47 °F    
Average Humidity 0    
Maximum Humidity 0    
Minimum Humidity 0    
Precipitation  
Precipitation 0.00 in 0.18 in 3.74 in (1955)
Month to date precipitation 0.86 3.00  
Year to date precipitation 36.70 35.86  
Snow  
Snow 0.00 in 0.00 in T in (2003)
Month to date snowfall 0.0 0.1  
Since 1 July snowfall 25.4 34.9  
Snow Depth 0.00 in    
Sea Level Pressure  
Sea Level Pressure 29.98 in    
Wind  
Wind Speed 7 mph (ESE)    
Max Wind Speed 14 mph    
Max Gust Speed 20 mph    
Visibility 10 miles    
Events Rain    
T = Trace of Precipitation, MM = Missing Value Source: NWS Daily Summary

Daily Weather History Graph

Daily Weather History Graph

Search for Another Location

Airport or City:

Trip Planner

Search our weather history database for the weather conditions in past years. The results will help you decide how hot, cold, wet, or windy it might be!

Date:

Astronomy

May. 16, 2014 Rise Set
Actual Time 4:36 AM AKDT 8:50 PM AKDT
Civil Twilight 3:48 AM AKDT 9:38 PM AKDT
Nautical Twilight 2:35 AM AKDT 10:52 PM AKDT
Astronomical Twilight 1:15 AM AKDT 12:10 AM AKDT
Moon 11:02 PM AKDT (5/16) 6:25 AM AKDT (5/16)
Length of Visible Light 17h 50m
Length of Day
16h 13m
Waning Gibbous, 95% of the Moon is Illuminated
May 16
Waning Gibbous
May 21
Last Quarter
May 28
New
Jun 5
First Quarter
Jun 12
Full

Hourly Weather History & Observations

Time (AKDT) Temp. Dew Point Humidity Pressure Visibility Wind Dir Wind Speed Gust Speed Precip Events Conditions
12:53 AM 53.1 °F 45.0 °F 74% 29.99 in 10.0 mi NW 5.8 mph - N/A   Clear
1:53 AM 54.0 °F 44.1 °F 69% 29.98 in 10.0 mi NNW 6.9 mph - N/A   Clear
2:53 AM 53.1 °F 45.0 °F 74% 29.96 in 10.0 mi NNW 8.1 mph - N/A   Clear
3:53 AM 52.0 °F 45.0 °F 77% 29.96 in 10.0 mi NNW 5.8 mph - N/A   Clear
4:53 AM 52.0 °F 44.1 °F 74% 29.95 in 10.0 mi NNW 10.4 mph - N/A   Clear
5:53 AM 54.0 °F 44.1 °F 69% 29.94 in 10.0 mi NW 9.2 mph - N/A   Clear
6:53 AM 55.9 °F 45.0 °F 67% 29.94 in 10.0 mi NW 6.9 mph - N/A   Scattered Clouds
7:53 AM 60.1 °F 45.0 °F 57% 29.94 in 10.0 mi NW 9.2 mph - N/A   Scattered Clouds
8:53 AM 66.0 °F 45.0 °F 47% 29.94 in 10.0 mi NNW 5.8 mph - N/A   Scattered Clouds
9:53 AM 68.0 °F 46.0 °F 45% 29.94 in 10.0 mi WNW 4.6 mph - N/A   Clear
10:53 AM 72.0 °F 48.0 °F 43% 29.95 in 10.0 mi Variable 3.5 mph - N/A   Clear
12:53 PM 57.9 °F 48.0 °F 70% 30.00 in 10.0 mi SSE 11.5 mph 17.3 mph N/A   Clear
1:53 PM 57.0 °F 48.0 °F 72% 30.01 in 10.0 mi SE 11.5 mph - N/A   Partly Cloudy
2:53 PM 55.9 °F 46.9 °F 72% 30.00 in 10.0 mi SSE 10.4 mph - N/A   Scattered Clouds
3:53 PM 55.9 °F 48.0 °F 75% 30.00 in 10.0 mi SE 9.2 mph - N/A   Scattered Clouds
4:53 PM 55.9 °F 48.0 °F 75% 29.99 in 10.0 mi SSE 11.5 mph - N/A   Partly Cloudy
5:53 PM 55.0 °F 48.0 °F 77% 29.99 in 10.0 mi SSE 8.1 mph - N/A   Mostly Cloudy
6:53 PM 55.0 °F 48.0 °F 77% 29.98 in 10.0 mi SE 10.4 mph - N/A   Mostly Cloudy
7:53 PM 54.0 °F 48.0 °F 80% 29.99 in 10.0 mi SE 8.1 mph - N/A   Overcast
8:53 PM 53.1 °F 48.0 °F 83% 30.00 in 10.0 mi SE 5.8 mph - N/A   Overcast
9:53 PM 53.1 °F 48.0 °F 83% 30.00 in 10.0 mi SSE 5.8 mph - N/A   Overcast
10:53 PM 52.0 °F 48.0 °F 86% 29.99 in 10.0 mi SE 4.6 mph - N/A   Overcast
11:53 PM 52.0 °F 48.9 °F 89% 29.99 in 10.0 mi Calm Calm - 0.00 in Rain Light Rain